When you browse on this site, cookies collect data to enhance your experience and personalize the content and advertising you see.
Visit our Privacy Policy to learn more. By continuing to use the site, you agree to this use of cookies and data.

Meteo pe oră la Siemianowice Śląskie

Astăzi, 14 August, Vineri

Timp Temperatura Precipitaţii Vânt Presiune Umiditate
00:00 +23°C° 0 mm 2 m/s 737 mmHg 58%
01:00 +21°C° 0 mm 2 m/s 737 mmHg 59%
02:00 +21°C° 0 mm 2 m/s 736 mmHg 61%
03:00 +20°C° 0 mm 2 m/s 736 mmHg 63%
04:00 +20°C° 0 mm 2 m/s 736 mmHg 65%
05:00 +21°C° 0 mm 2 m/s 736 mmHg 63%
06:00 +21°C° 0 mm 2 m/s 736 mmHg 62%
07:00 +23°C° 0 mm 2 m/s 736 mmHg 61%
08:00 +25°C° 0 mm 2 m/s 736 mmHg 56%
09:00 +27°C° 0 mm 2 m/s 736 mmHg 51%
10:00 +28°C° 0 mm 2 m/s 737 mmHg 47%
11:00 +29°C° 0 mm 2 m/s 736 mmHg 44%
12:00 +30°C° 0 mm 2 m/s 736 mmHg 41%
13:00 +31°C° 0 mm 2 m/s 736 mmHg 39%
14:00 +30°C° 0 mm 2 m/s 736 mmHg 41%
15:00 +30°C° 0 mm 3 m/s 736 mmHg 43%
16:00 +29°C° 0 mm 3 m/s 735 mmHg 45%
17:00 +27°C° 0.4 mm 3 m/s 735 mmHg 52%
18:00 +26°C° 0.4 mm 3 m/s 735 mmHg 58%
19:00 +24°C° 0.4 mm 3 m/s 735 mmHg 65%
20:00 +22°C° 0 mm 3 m/s 735 mmHg 65%
21:00 +22°C° 0 mm 3 m/s 736 mmHg 66%
22:00 +21°C° 0 mm 3 m/s 736 mmHg 67%
23:00 +20°C° 0 mm 3 m/s 736 mmHg 69%

Mâine, 15 August, Sâmbătă

Timp Temperatura Precipitaţii Vânt Presiune Umiditate
00:00 +20°C° 0 mm 3 m/s 736 mmHg 72%
01:00 +19°C° 0 mm 3 m/s 736 mmHg 75%
02:00 +19°C° 0.1 mm 3 m/s 735 mmHg 76%
03:00 +19°C° 0.1 mm 3 m/s 735 mmHg 78%
04:00 +18°C° 0.1 mm 3 m/s 735 mmHg 79%
05:00 +19°C° 0.2 mm 3 m/s 735 mmHg 77%
06:00 +19°C° 0.2 mm 3 m/s 735 mmHg 75%
07:00 +20°C° 0.2 mm 3 m/s 736 mmHg 72%
08:00 +21°C° 0.2 mm 3 m/s 736 mmHg 68%
09:00 +22°C° 0.2 mm 3 m/s 736 mmHg 64%
10:00 +24°C° 0.2 mm 2 m/s 736 mmHg 60%
11:00 +25°C° 0 mm 3 m/s 736 mmHg 57%
12:00 +25°C° 0 mm 3 m/s 736 mmHg 54%
13:00 +26°C° 0 mm 3 m/s 736 mmHg 50%
14:00 +26°C° 0 mm 3 m/s 736 mmHg 51%
15:00 +26°C° 0 mm 3 m/s 736 mmHg 52%
16:00 +25°C° 0 mm 3 m/s 736 mmHg 53%
17:00 +25°C° 0 mm 3 m/s 736 mmHg 56%
18:00 +24°C° 0 mm 3 m/s 736 mmHg 60%
19:00 +22°C° 0 mm 3 m/s 736 mmHg 63%
20:00 +21°C° 0 mm 3 m/s 736 mmHg 67%
21:00 +20°C° 0 mm 3 m/s 736 mmHg 71%
22:00 +19°C° 0 mm 3 m/s 736 mmHg 74%
23:00 +19°C° 0 mm 3 m/s 736 mmHg 77%

Poimâine, 16 August, Duminică

Timp Temperatura Precipitaţii Vânt Presiune Umiditate
00:00 +18°C° 0 mm 3 m/s 736 mmHg 80%
01:00 +17°C° 0 mm 3 m/s 736 mmHg 83%
02:00 +17°C° 0 mm 3 m/s 736 mmHg 85%
03:00 +16°C° 0 mm 3 m/s 736 mmHg 87%
04:00 +16°C° 0 mm 3 m/s 736 mmHg 89%
05:00 +17°C° 0 mm 3 m/s 736 mmHg 84%
06:00 +17°C° 0 mm 3 m/s 736 mmHg 80%
07:00 +18°C° 0 mm 3 m/s 736 mmHg 76%
08:00 +20°C° 0 mm 3 m/s 736 mmHg 70%
09:00 +22°C° 0 mm 3 m/s 736 mmHg 64%
10:00 +24°C° 0 mm 3 m/s 737 mmHg 57%
11:00 +25°C° 0 mm 3 m/s 737 mmHg 54%
12:00 +26°C° 0 mm 3 m/s 736 mmHg 51%
13:00 +27°C° 0 mm 3 m/s 736 mmHg 49%
14:00 +27°C° 0 mm 3 m/s 736 mmHg 50%
15:00 +27°C° 0 mm 4 m/s 736 mmHg 51%
16:00 +27°C° 0 mm 4 m/s 736 mmHg 53%
17:00 +25°C° 0 mm 4 m/s 736 mmHg 59%
18:00 +24°C° 0 mm 3 m/s 736 mmHg 66%
19:00 +21°C° 0 mm 3 m/s 736 mmHg 72%
20:00 +20°C° 0 mm 3 m/s 736 mmHg 75%
21:00 +19°C° 0 mm 2 m/s 736 mmHg 79%
22:00 +19°C° 0 mm 2 m/s 735 mmHg 82%
23:00 +18°C° 0 mm 2 m/s 735 mmHg 84%

17 August, Luni

Timp Temperatura Precipitaţii Vânt Presiune Umiditate
00:00 +19°C° 0 mm 1 m/s 735 mmHg 85%
01:00 +18°C° 0 mm 1 m/s 735 mmHg 87%
02:00 +16°C° 0 mm 0 m/s 735 mmHg 88%
03:00 +16°C° 0 mm 0 m/s 735 mmHg 89%
04:00 +16°C° 0 mm 0 m/s 735 mmHg 89%
05:00 +17°C° 0 mm 0 m/s 735 mmHg 85%
06:00 +18°C° 0 mm 0 m/s 735 mmHg 80%
07:00 +19°C° 0 mm 0 m/s 735 mmHg 75%
08:00 +21°C° 0 mm 0 m/s 735 mmHg 68%
09:00 +25°C° 0 mm 1 m/s 735 mmHg 61%
10:00 +27°C° 0 mm 1 m/s 735 mmHg 54%
11:00 +28°C° 0 mm 1 m/s 735 mmHg 49%
12:00 +29°C° 0 mm 2 m/s 735 mmHg 44%
13:00 +30°C° 0 mm 2 m/s 734 mmHg 39%
14:00 +30°C° 0 mm 2 m/s 734 mmHg 38%
15:00 +30°C° 0 mm 2 m/s 734 mmHg 37%
16:00 +30°C° 0 mm 2 m/s 734 mmHg 36%
17:00 +28°C° 0 mm 2 m/s 734 mmHg 42%
18:00 +26°C° 0 mm 1 m/s 733 mmHg 48%
19:00 +25°C° 0 mm 1 m/s 733 mmHg 53%
20:00 +24°C° 0 mm 1 m/s 733 mmHg 58%
21:00 +23°C° 0 mm 1 m/s 733 mmHg 63%
22:00 +22°C° 0 mm 1 m/s 733 mmHg 67%
23:00 +22°C° 0 mm 1 m/s 733 mmHg 69%

18 August, Marţi

Timp Temperatura Precipitaţii Vânt Presiune Umiditate
00:00 +21°C° 0 mm 1 m/s 733 mmHg 71%
01:00 +21°C° 0 mm 1 m/s 733 mmHg 73%
02:00 +21°C° 0 mm 1 m/s 732 mmHg 74%
03:00 +20°C° 0 mm 1 m/s 732 mmHg 75%
04:00 +18°C° 0 mm 0 m/s 732 mmHg 76%
05:00 +19°C° 0.1 mm 0 m/s 732 mmHg 73%
06:00 +22°C° 0.1 mm 1 m/s 732 mmHg 70%
07:00 +23°C° 0.1 mm 1 m/s 732 mmHg 67%
08:00 +24°C° 0.4 mm 1 m/s 732 mmHg 66%
09:00 +25°C° 0.4 mm 1 m/s 732 mmHg 64%
10:00 +26°C° 0.4 mm 2 m/s 732 mmHg 63%
11:00 +25°C° 0.9 mm 3 m/s 732 mmHg 68%
12:00 +24°C° 0.9 mm 3 m/s 731 mmHg 73%
13:00 +22°C° 0.9 mm 4 m/s 731 mmHg 78%
14:00 +21°C° 0.7 mm 4 m/s 731 mmHg 81%
15:00 +20°C° 0.7 mm 4 m/s 731 mmHg 84%
16:00 +20°C° 0.7 mm 4 m/s 731 mmHg 87%
17:00 +19°C° 0.7 mm 4 m/s 731 mmHg 89%
18:00 +17°C° 0.7 mm 5 m/s 731 mmHg 90%
19:00 +17°C° 0.7 mm 5 m/s 731 mmHg 91%
20:00 +17°C° 0.5 mm 5 m/s 732 mmHg 90%
21:00 +16°C° 0.5 mm 5 m/s 732 mmHg 90%
22:00 +16°C° 0.5 mm 5 m/s 732 mmHg 90%
23:00 +16°C° 1.5 mm 6 m/s 732 mmHg 90%

19 August, Miercuri

Timp Temperatura Precipitaţii Vânt Presiune Umiditate
00:00 +16°C° 1.5 mm 6 m/s 732 mmHg 90%
01:00 +16°C° 1.5 mm 6 m/s 732 mmHg 90%
02:00 +16°C° 0.6 mm 6 m/s 732 mmHg 89%
03:00 +16°C° 0.6 mm 6 m/s 732 mmHg 89%
04:00 +16°C° 0.6 mm 6 m/s 732 mmHg 88%
05:00 +16°C° 0.1 mm 5 m/s 732 mmHg 87%
06:00 +16°C° 0.1 mm 5 m/s 732 mmHg 86%
07:00 +16°C° 0.1 mm 5 m/s 733 mmHg 85%
08:00 +17°C° 0.2 mm 5 m/s 733 mmHg 83%
09:00 +19°C° 0.2 mm 5 m/s 733 mmHg 81%
10:00 +19°C° 0.2 mm 5 m/s 733 mmHg 79%
11:00 +20°C° 0.5 mm 5 m/s 733 mmHg 73%
12:00 +21°C° 0.5 mm 6 m/s 733 mmHg 67%
13:00 +23°C° 0.5 mm 6 m/s 733 mmHg 61%
14:00 +23°C° 0.2 mm 5 m/s 733 mmHg 60%
15:00 +23°C° 0.2 mm 5 m/s 733 mmHg 59%
16:00 +23°C° 0.2 mm 5 m/s 733 mmHg 58%
17:00 +22°C° 0.4 mm 4 m/s 733 mmHg 65%
18:00 +20°C° 0.4 mm 4 m/s 733 mmHg 72%
19:00 +19°C° 0.4 mm 3 m/s 732 mmHg 79%
20:00 +18°C° 0.2 mm 3 m/s 733 mmHg 81%
21:00 +18°C° 0.2 mm 3 m/s 733 mmHg 84%
22:00 +17°C° 0.2 mm 3 m/s 733 mmHg 87%
23:00 +17°C° 0.2 mm 3 m/s 733 mmHg 88%
Arată mai mult